PBO Station Position Time Series. Reference Frame : NAM14
Format Version,1.1.1
4-character ID,P144
Station name,PliocenRdgCN2007
Begin Date, 2007-10-27
End Date, 2023-06-26
Release Date, 2023-06-27
Reference position, 39.4667038833 North Latitude, -120.8929866511 East Longitude, 1436.87185 meters elevation,
Date, North (mm), East (mm), Vertical (mm), North Std. Deviation (mm), East Std. Deviation (mm),              Vertical Std. Deviation (mm), Quality,
2007-10-27,0.00, 0.00, 0.00, 2.09, 1.64, 7.58, repro,
2007-10-28,-1.31, -0.02, -0.87, 2.14, 1.69, 7.72, repro,
2007-10-29,0.48, 0.98, -3.56, 2.11, 1.67, 7.71, repro,
2007-10-30,0.67, 1.08, -5.19, 2.10, 1.66, 7.65, repro,
2007-10-31,0.08, -0.54, -0.75, 2.12, 1.68, 7.86, repro,
2007-11-01,-1.01, -0.69, 7.09, 2.07, 1.61, 7.45, repro,
2007-11-02,-1.36, -1.64, -2.58, 2.09, 1.66, 7.69, repro,
2007-11-03,-1.31, -0.22, 0.96, 2.05, 1.62, 7.42, repro,
2007-11-04,0.13, 0.11, 1.56, 2.05, 1.62, 7.41, repro,
2007-11-05,0.98, 1.29, -3.91, 2.08, 1.65, 7.64, repro,
2007-11-06,0.13, 0.35, -3.56, 2.20, 1.80, 8.10, repro,
2007-11-07,-0.30, -0.68, -0.59, 2.06, 1.61, 7.44, repro,
2007-11-08,-0.97, -0.39, -1.04, 2.13, 1.70, 7.84, repro,
2007-11-09,-0.78, -0.96, -3.30, 2.08, 1.65, 7.53, repro,
2007-11-10,-0.07, -0.77, -3.63, 2.05, 1.61, 7.45, repro,
2007-11-11,1.00, -0.45, -2.58, 2.09, 1.68, 7.63, repro,
2007-11-12,1.75, -0.61, -2.44, 2.21, 1.80, 8.14, repro,
2007-11-13,-0.33, -1.34, 3.96, 2.09, 1.67, 7.57, repro,
2007-11-14,-1.00, 0.21, -8.63, 2.12, 1.70, 7.65, repro,
2007-11-15,0.52, -0.77, -2.94, 2.08, 1.63, 7.53, repro,
2007-11-16,0.20, -0.27, 0.24, 2.15, 1.73, 7.76, repro,
2007-11-17,0.40, -0.39, -3.85, 2.17, 1.73, 8.04, repro,
2007-11-18,0.90, -0.91, -2.97, 2.07, 1.61, 7.50, repro,
2007-11-19,0.51, 1.33, -11.10, 2.05, 1.62, 7.45, repro,
2007-11-20,0.90, -0.86, -15.14, 2.06, 1.66, 7.56, repro,
2007-11-21,0.88, -0.40, -6.21, 2.11, 1.73, 7.76, repro,
2007-11-22,0.21, -0.87, -10.30, 2.18, 1.74, 8.04, repro,
2007-11-23,1.19, -0.30, -5.22, 2.17, 1.79, 7.98, repro,
2007-11-24,0.62, -1.69, -0.18, 2.17, 1.78, 7.85, repro,
2007-11-25,0.61, -1.10, -1.89, 2.14, 1.77, 7.91, repro,
2007-11-26,0.24, -0.75, -10.80, 2.16, 1.75, 7.90, repro,
2007-11-27,-0.16, -0.75, -0.00, 2.19, 1.79, 8.22, repro,
2007-11-28,-0.46, -0.70, -6.68, 2.20, 1.78, 8.11, repro,
2007-11-29,0.87, -1.13, -1.68, 2.19, 1.73, 7.95, repro,
2007-11-30,0.83, -1.04, -4.06, 2.15, 1.75, 7.83, repro,
2007-12-01,0.60, -1.69, 3.21, 2.22, 1.83, 8.21, repro,
2007-12-02,1.61, -1.35, 1.36, 2.11, 1.73, 7.88, repro,
2007-12-03,2.67, -1.00, -5.22, 2.29, 1.84, 8.65, repro,
2007-12-04,0.94, 0.15, -6.63, 2.20, 1.79, 8.22, repro,
2007-12-05,1.20, -0.12, -6.93, 2.18, 1.81, 8.19, repro,
2007-12-06,2.86, 0.53, -4.22, 2.38, 1.98, 8.90, repro,
2007-12-07,1.65, -0.21, 1.98, 2.27, 1.91, 8.55, repro,
2007-12-08,0.64, -1.57, -4.95, 2.17, 1.80, 7.94, repro,
2007-12-09,0.67, -0.74, -11.06, 2.49, 2.20, 9.53, repro,
2007-12-10,1.54, -1.55, -7.47, 2.22, 1.86, 8.40, repro,
2007-12-11,1.97, -1.24, -3.85, 2.13, 1.74, 7.80, repro,
2007-12-12,1.30, -1.57, -7.47, 2.19, 1.76, 8.09, repro,
2007-12-13,1.05, -0.83, -13.42, 2.23, 1.76, 8.10, repro,
2007-12-14,1.34, -0.55, -0.60, 2.27, 1.83, 8.38, repro,
2007-12-15,1.10, 0.75, -4.08, 2.18, 1.69, 8.03, repro,
2007-12-16,1.24, -0.93, -1.77, 2.14, 1.67, 7.86, repro,
2007-12-17,3.30, 0.25, -0.72, 2.12, 1.67, 7.77, repro,
2007-12-18,5.03, -0.17, 4.28, 2.17, 1.69, 8.07, repro,
2007-12-19,3.64, 4.89, -8.33, 2.15, 1.72, 7.90, repro,
2007-12-20,0.97, 0.24, -1.26, 2.15, 1.66, 7.82, repro,
2007-12-21,1.18, -0.92, -4.09, 2.22, 1.72, 7.99, repro,
2007-12-22,-1.08, -1.26, -6.16, 2.15, 1.70, 7.91, repro,
2007-12-23,-0.67, 0.25, -7.49, 2.17, 1.76, 8.01, repro,
2007-12-24,0.69, 0.04, -16.17, 2.15, 1.69, 7.85, repro,
2007-12-25,-0.51, -0.76, -2.85, 2.14, 1.69, 7.81, repro,
2007-12-26,-0.18, -0.30, -3.40, 2.14, 1.68, 7.73, repro,
2007-12-27,-0.17, -0.20, -3.58, 2.17, 1.69, 7.92, repro,
2007-12-28,1.64, 0.79, -5.81, 2.18, 1.70, 7.93, repro,
2007-12-29,3.61, 2.74, -3.78, 2.24, 1.73, 8.09, repro,
2007-12-30,-0.62, 1.29, -16.69, 2.24, 1.76, 8.22, repro,
2007-12-31,-0.33, 0.74, -12.87, 2.13, 1.63, 7.65, repro,
2008-01-01,0.79, 0.60, -11.35, 2.17, 1.67, 7.93, repro,
2008-01-02,0.73, 0.17, -11.83, 2.15, 1.63, 7.71, repro,
2008-01-03,-1.15, 0.41, -3.21, 2.14, 1.62, 7.69, repro,
2008-01-04,1.22, 0.45, 0.81, 2.10, 1.60, 7.63, repro,
2008-01-05,-5.44, 1.07, 5.05, 2.11, 1.62, 7.71, repro,
2008-01-06,-3.08, 3.53, 1.83, 2.16, 1.66, 8.00, repro,
2008-01-07,-2.40, 4.03, 6.19, 2.12, 1.67, 7.88, repro,
2008-01-08,-0.99, -0.26, -5.18, 2.17, 1.64, 7.96, repro,
2008-01-09,0.19, 1.54, -10.96, 2.17, 1.64, 7.89, repro,
2008-01-10,-0.21, 2.76, -19.27, 2.18, 1.75, 7.99, repro,
2008-01-11,1.13, 1.04, -22.46, 2.09, 1.64, 7.68, repro,
2008-01-12,1.32, 1.37, -8.89, 2.11, 1.64, 7.71, repro,
2008-01-13,0.37, -0.21, -13.72, 2.12, 1.65, 7.74, repro,
2008-01-14,0.33, 1.04, -10.19, 2.16, 1.68, 7.79, repro,
2008-01-15,1.09, -0.23, -10.32, 2.07, 1.62, 7.61, repro,
2008-01-16,1.15, -0.59, -7.51, 2.19, 1.70, 7.88, repro,
2008-01-17,-1.00, -0.99, -7.32, 2.13, 1.63, 7.65, repro,
2008-01-18,0.87, -0.19, -2.92, 2.14, 1.69, 7.88, repro,
2008-01-19,0.86, 0.16, -10.71, 2.09, 1.62, 7.62, repro,
2008-01-20,1.42, 0.05, -10.96, 2.11, 1.67, 7.62, repro,
2008-01-21,0.58, -0.06, -5.39, 2.06, 1.61, 7.54, repro,
2008-01-22,0.93, 1.36, -13.07, 2.06, 1.60, 7.45, repro,
2008-01-23,2.36, 1.08, -12.22, 2.13, 1.67, 7.71, repro,
2008-01-24,-0.90, -0.32, -7.18, 2.12, 1.67, 7.70, repro,
2008-01-25,-1.55, -0.77, -12.86, 2.11, 1.67, 7.70, repro,
2008-01-26,-0.47, 2.74, -19.23, 2.12, 1.70, 7.84, repro,
2008-01-27,2.14, 2.31, -2.75, 2.10, 1.64, 7.69, repro,
2008-01-28,3.77, 6.02, 1.64, 2.08, 1.62, 7.57, repro,
2008-01-29,0.07, 0.71, -10.17, 2.27, 1.87, 8.36, repro,
2008-01-30,-0.16, 2.09, -13.40, 2.24, 1.74, 8.22, repro,
2008-01-31,-0.65, 2.20, -17.30, 2.15, 1.71, 7.92, repro,
2008-02-01,-0.01, 0.16, -9.24, 2.05, 1.62, 7.53, repro,
2008-02-02,1.27, 0.80, -11.26, 2.07, 1.63, 7.63, repro,
2008-02-03,-0.52, 1.84, -20.95, 2.09, 1.65, 7.65, repro,
2008-02-04,1.33, 0.72, -16.05, 2.13, 1.72, 7.90, repro,
2008-02-05,2.06, 1.35, -11.20, 2.13, 1.72, 7.88, repro,
2008-02-06,1.93, 0.94, -8.08, 2.10, 1.70, 7.77, repro,
2008-02-07,0.94, 0.39, -6.87, 2.13, 1.69, 7.91, repro,
2008-02-08,0.45, 0.14, 0.77, 2.08, 1.66, 7.67, repro,
2008-02-09,0.09, 1.13, -3.77, 2.09, 1.69, 7.81, repro,
2008-02-10,1.88, 0.41, -2.85, 2.11, 1.68, 7.77, repro,
2008-02-11,1.36, 1.17, -7.27, 2.07, 1.65, 7.58, repro,
2008-02-12,1.33, 2.09, -10.45, 2.07, 1.66, 7.69, repro,
2008-02-13,0.96, 1.88, -17.43, 2.07, 1.66, 7.66, repro,
2008-02-14,1.05, 1.57, -9.92, 2.10, 1.69, 7.68, repro,
2008-02-15,1.18, 2.59, -17.15, 2.20, 1.76, 8.02, repro,
2008-02-16,-0.10, 2.42, -13.08, 2.09, 1.62, 7.51, repro,
2008-02-17,0.71, 3.08, -15.66, 2.07, 1.63, 7.56, repro,
2008-02-18,-0.90, 2.87, -20.93, 2.06, 1.63, 7.55, repro,
2008-02-19,-0.28, 4.78, -20.06, 2.07, 1.62, 7.52, repro,
2008-02-20,-2.23, 3.28, -20.95, 2.12, 1.70, 7.68, repro,
2008-02-21,-0.84, 1.81, -12.21, 2.15, 1.72, 7.87, repro,
2008-02-22,2.20, 1.88, -11.10, 2.08, 1.61, 7.52, repro,
2008-02-23,-0.71, 0.33, -4.32, 2.07, 1.63, 7.55, repro,
2008-02-24,0.31, 4.93, -15.14, 2.11, 1.68, 7.72, repro,
2008-02-25,-0.14, 7.06, -14.73, 2.14, 1.69, 7.79, repro,
2008-02-26,-0.02, 0.23, -17.09, 2.10, 1.64, 7.68, repro,
2008-02-27,0.79, -0.98, -14.19, 2.14, 1.74, 7.96, repro,
2008-02-28,0.49, -0.52, -10.40, 2.11, 1.66, 7.79, repro,
2008-02-29,0.47, 1.46, -6.41, 2.07, 1.64, 7.59, repro,
2008-03-01,0.25, 0.41, -11.64, 2.09, 1.68, 7.76, repro,
2008-03-02,2.58, 2.03, -21.51, 2.12, 1.69, 7.87, repro,
2008-03-03,-0.34, 1.58, -19.92, 2.14, 1.68, 7.76, repro,
2008-03-04,-0.13, 2.38, -26.28, 2.08, 1.64, 7.63, repro,
2008-03-05,-1.09, 3.30, -20.61, 2.18, 1.77, 8.05, repro,
2008-03-06,-0.89, 3.34, -26.37, 2.07, 1.64, 7.56, repro,
2008-03-07,-1.62, 3.16, -23.42, 2.11, 1.67, 7.60, repro,
2008-03-08,-2.89, 2.87, -25.73, 2.11, 1.66, 7.72, repro,
2008-03-09,-1.74, 2.35, -21.44, 2.17, 1.71, 7.95, repro,
2008-03-10,-1.75, 2.87, -28.94, 2.09, 1.64, 7.66, repro,
2008-03-11,-0.99, 1.50, -27.24, 2.09, 1.67, 7.77, repro,
2008-03-12,-0.59, 1.87, -19.23, 2.13, 1.69, 7.92, repro,
2008-03-13,-0.39, -0.82, -8.35, 2.19, 1.76, 8.11, repro,
2008-03-14,-0.81, -0.56, -4.69, 2.14, 1.68, 7.90, repro,
2008-03-15,0.04, 3.63, -23.08, 2.06, 1.63, 7.55, repro,
2008-03-16,-0.24, 2.68, -24.56, 2.10, 1.66, 7.66, repro,
2008-03-17,-0.37, 1.26, -14.58, 2.23, 1.79, 8.38, repro,
2008-03-18,-0.79, -0.03, -11.29, 2.15, 1.72, 7.98, repro,
2008-03-19,-2.46, -1.20, -14.02, 2.13, 1.69, 7.81, repro,
2008-03-20,-0.26, -1.47, -11.98, 2.16, 1.71, 8.01, repro,
2008-03-21,0.47, 0.03, -13.82, 2.10, 1.65, 7.67, repro,
2008-03-22,0.04, -1.09, -8.43, 2.10, 1.67, 7.78, repro,
2008-03-23,0.61, -1.34, -10.19, 2.12, 1.66, 7.73, repro,
2008-03-24,0.04, -1.39, -7.22, 2.15, 1.70, 7.87, repro,
2008-03-25,-1.06, 0.60, -16.59, 2.20, 1.72, 8.07, repro,
2008-03-26,0.36, 0.38, -14.90, 2.15, 1.69, 7.80, repro,
2008-03-27,-0.40, 1.42, -21.10, 2.21, 1.73, 7.92, repro,
2008-03-28,-1.28, 0.32, -14.71, 2.12, 1.66, 7.67, repro,
2008-03-29,-0.08, 0.97, -13.78, 2.12, 1.63, 7.68, repro,
2008-03-30,0.05, -1.33, -10.95, 2.12, 1.67, 7.68, repro,
2008-03-31,0.14, 0.36, -12.18, 2.13, 1.65, 7.77, repro,
2008-04-01,-1.90, 0.41, -12.67, 2.11, 1.62, 7.62, repro,
2008-04-02,-1.69, 0.07, -10.53, 2.15, 1.64, 7.85, repro,
2008-04-03,0.58, 0.31, -14.80, 2.19, 1.72, 8.11, repro,
2008-04-04,-0.29, -0.17, -9.53, 2.10, 1.62, 7.63, repro,
2008-04-05,0.28, -0.76, -8.98, 2.20, 1.71, 7.89, repro,
2008-04-06,-0.00, 0.78, -14.19, 2.08, 1.60, 7.50, repro,
2008-04-07,0.87, -1.11, -11.78, 2.08, 1.60, 7.51, repro,
2008-04-08,0.05, -1.81, -9.15, 2.12, 1.65, 7.84, repro,
2008-04-09,-1.19, -0.95, -1.65, 2.09, 1.62, 7.59, repro,
2008-04-10,0.06, -0.89, -12.32, 2.11, 1.63, 7.70, repro,
2008-04-11,-1.38, -0.77, -11.82, 2.16, 1.66, 7.91, repro,
2008-04-12,0.13, -0.68, -16.62, 2.16, 1.67, 7.85, repro,
2008-04-13,0.01, -0.62, -12.61, 2.19, 1.75, 8.28, repro,
2008-04-14,1.71, -1.17, -6.25, 2.10, 1.63, 7.72, repro,
2008-04-15,0.23, -0.80, -6.07, 2.11, 1.65, 7.63, repro,
2008-04-16,1.29, -1.17, -9.07, 2.15, 1.66, 7.76, repro,
2008-04-17,-0.39, -1.49, -8.46, 2.15, 1.65, 7.94, repro,
2008-04-18,0.10, -1.17, -9.23, 2.15, 1.66, 7.76, repro,
2008-04-19,0.64, -0.42, -3.72, 2.17, 1.70, 7.97, repro,
2008-04-20,-1.19, -1.09, -5.03, 2.08, 1.60, 7.54, repro,
2008-04-21,-0.51, -0.07, -11.47, 2.12, 1.62, 7.71, repro,
2008-04-22,-0.29, -0.37, -12.62, 2.15, 1.64, 7.91, repro,
2008-04-23,1.02, -0.83, -15.61, 2.20, 1.68, 7.94, repro,
2008-04-24,-0.68, -0.95, -11.81, 2.18, 1.68, 8.06, repro,
2008-04-25,0.87, -0.55, -16.00, 2.20, 1.70, 8.19, repro,
2008-04-26,1.74, -0.08, -15.23, 2.22, 1.70, 7.95, repro,
2008-04-27,-3.06, -0.61, -10.11, 2.27, 1.68, 8.18, repro,
2008-04-28,-1.35, -1.29, -15.32, 2.24, 1.67, 8.15, repro,
2008-04-29,2.57, 0.38, -8.88, 2.31, 1.69, 8.32, repro,
2008-04-30,1.34, -0.62, -8.36, 2.16, 1.63, 7.68, repro,
2008-05-01,0.39, 0.14, -11.42, 2.21, 1.69, 7.94, repro,
2008-05-02,-1.17, 0.15, -8.45, 2.20, 1.68, 7.86, repro,
2008-05-03,-0.74, -0.23, -10.62, 2.22, 1.70, 8.09, repro,
2008-05-04,-0.37, -0.20, -6.61, 2.17, 1.65, 7.81, repro,
2008-05-05,0.83, 2.14, -16.31, 2.16, 1.64, 7.69, repro,
2008-05-06,2.25, -0.43, -16.80, 2.20, 1.71, 7.96, repro,
2008-05-07,-0.90, -1.53, -3.46, 2.15, 1.62, 7.67, repro,
2008-05-08,-0.20, -0.88, -10.98, 2.27, 1.78, 8.19, repro,
2008-05-09,-1.57, -0.89, -3.68, 2.17, 1.63, 7.79, repro,
2008-05-10,0.66, 1.30, -8.18, 2.13, 1.60, 7.57, repro,
2008-05-11,-0.23, 0.81, -3.22, 2.28, 1.72, 8.04, repro,
2008-05-12,-0.34, -0.16, -6.14, 2.12, 1.61, 7.62, repro,
2008-05-13,-0.28, -0.50, -11.34, 2.20, 1.69, 7.87, repro,
2008-05-14,1.27, -0.72, -10.51, 2.14, 1.62, 7.69, repro,
2008-05-15,-3.17, 0.55, -0.95, 2.16, 1.61, 7.68, repro,
2008-05-16,-0.21, 0.96, -9.26, 2.13, 1.61, 7.67, repro,
2008-05-17,-2.07, -0.97, -5.05, 2.26, 1.69, 7.94, repro,
2008-05-18,0.64, -0.21, -10.64, 2.18, 1.65, 7.75, repro,
2008-05-19,-1.14, -0.46, -5.06, 2.13, 1.63, 7.80, repro,
2008-05-20,0.56, -0.77, -5.17, 2.13, 1.63, 7.71, repro,
2008-05-21,0.09, -1.58, -0.20, 2.13, 1.62, 7.76, repro,
2008-05-22,1.58, 0.41, -5.24, 2.13, 1.65, 7.77, repro,
2008-05-23,-0.04, 0.46, -1.07, 2.13, 1.66, 7.84, repro,
2008-05-24,0.24, -1.31, -8.13, 2.17, 1.66, 7.85, repro,
2008-05-25,-0.34, -0.25, -6.13, 2.16, 1.65, 7.96, repro,
2008-05-26,-0.30, 1.20, -9.47, 2.14, 1.64, 7.77, repro,
2008-05-27,-2.37, 0.42, -6.31, 2.11, 1.60, 7.64, repro,
2008-05-28,0.55, 0.33, -11.02, 2.18, 1.65, 7.80, repro,
2008-05-29,0.69, 1.11, -7.71, 2.17, 1.66, 7.81, repro,
2008-05-30,-0.16, 0.53, -15.16, 2.15, 1.67, 7.93, repro,
2008-05-31,0.76, 0.80, -7.42, 2.15, 1.65, 7.92, repro,
2008-06-01,-0.46, -0.31, -10.33, 2.13, 1.60, 7.69, repro,
2008-06-02,0.85, 0.86, -5.86, 2.11, 1.60, 7.60, repro,
2008-06-03,0.11, 0.96, -10.05, 2.18, 1.67, 7.96, repro,
2008-06-04,2.10, -1.13, -0.72, 2.11, 1.61, 7.62, repro,
2008-06-05,2.00, 0.44, -3.03, 2.17, 1.67, 7.92, repro,
2008-06-06,-0.50, 0.30, -5.18, 2.19, 1.67, 7.85, repro,
2008-06-07,-0.99, 0.59, -2.25, 2.18, 1.68, 7.93, repro,
2008-06-08,1.32, 0.04, -5.07, 2.18, 1.64, 7.83, repro,
2008-06-09,1.01, 0.96, -9.92, 2.16, 1.67, 7.87, repro,
2008-06-10,-0.27, 0.53, -6.96, 2.20, 1.68, 8.03, repro,
2008-06-11,0.10, 0.60, -9.08, 2.12, 1.59, 7.58, repro,
2008-06-12,-0.15, 0.84, -2.93, 2.16, 1.67, 7.78, repro,
2008-06-13,0.63, 0.78, -9.86, 2.12, 1.59, 7.57, repro,
2008-06-14,0.43, 0.79, -8.41, 2.20, 1.65, 7.82, repro,
2008-06-15,0.96, 0.49, -5.81, 2.15, 1.63, 7.65, repro,
2008-06-16,1.27, 1.53, -10.65, 2.14, 1.62, 7.72, repro,
2008-06-17,0.03, -0.00, -3.06, 2.14, 1.59, 7.69, repro,
2008-06-18,0.59, 1.13, -12.42, 2.16, 1.62, 7.83, repro,
2008-06-19,0.49, 0.74, -8.48, 2.13, 1.66, 7.81, repro,
2008-06-20,-0.26, 0.66, -8.40, 2.14, 1.64, 7.69, repro,
2008-06-21,1.41, 2.01, -13.49, 2.15, 1.60, 7.75, repro,
2008-06-22,0.12, 1.71, -8.05, 2.15, 1.64, 7.66, repro,
2008-06-23,-0.53, 1.41, -2.69, 2.14, 1.61, 7.75, repro,
2008-06-24,0.42, 0.62, -6.52, 2.13, 1.62, 7.59, repro,
2008-06-25,-0.70, -0.20, -2.24, 2.09, 1.58, 7.49, repro,
2008-06-26,0.78, 0.56, -2.49, 2.16, 1.67, 7.94, repro,
2008-06-27,0.76, 1.57, -2.23, 2.12, 1.58, 7.56, repro,
2008-06-28,-0.16, 1.56, -4.71, 2.16, 1.63, 7.72, repro,
2008-06-29,-0.05, 1.35, -10.46, 2.14, 1.61, 7.75, repro,
2008-06-30,0.88, 1.67, -11.12, 2.10, 1.58, 7.49, repro,
2008-07-01,-0.50, 0.28, -3.86, 2.12, 1.61, 7.70, repro,
2008-07-02,0.46, 1.38, -3.03, 2.13, 1.61, 7.70, repro,
2008-07-03,0.88, 0.79, -8.90, 2.16, 1.62, 7.71, repro,
2008-07-04,2.64, -0.02, -3.31, 2.11, 1.58, 7.52, repro,
2008-07-05,0.99, 1.54, -2.30, 2.10, 1.57, 7.46, repro,
2008-07-06,3.10, 0.17, 4.58, 2.08, 1.58, 7.44, repro,
2008-07-07,1.22, -1.58, 1.07, 2.17, 1.68, 7.91, repro,
2008-07-08,0.69, -0.45, 2.14, 2.25, 1.75, 8.17, repro,
2008-07-09,0.71, -0.99, 2.33, 2.23, 1.72, 8.10, repro,
2008-07-10,-0.38, 0.63, 6.05, 2.20, 1.66, 7.89, repro,
2008-07-11,1.27, 0.37, 2.37, 2.19, 1.69, 7.75, repro,
2008-07-12,1.07, -0.34, 2.45, 2.10, 1.58, 7.51, repro,
2008-07-13,-0.23, 0.04, 4.42, 2.21, 1.71, 7.95, repro,
2008-07-14,-1.24, -0.49, 7.37, 2.17, 1.66, 7.87, repro,
2008-07-15,-0.44, 0.90, -5.60, 2.14, 1.63, 7.80, repro,
2008-07-16,1.20, 0.69, -4.51, 2.10, 1.59, 7.53, repro,
2008-07-17,1.52, 0.40, -5.47, 2.10, 1.60, 7.54, repro,
2008-07-18,-0.35, 0.79, 6.67, 2.34, 1.72, 8.56, repro,
2008-07-19,-0.19, 0.93, 6.97, 2.21, 1.62, 8.04, repro,
2008-07-20,0.19, -1.07, 7.32, 2.13, 1.61, 7.75, repro,
2008-07-21,2.02, 1.24, 6.95, 2.15, 1.63, 7.80, repro,
2008-07-22,1.99, 0.43, -0.02, 2.10, 1.58, 7.51, repro,
2008-07-23,-0.14, 1.45, 6.19, 2.15, 1.60, 7.68, repro,
2008-07-24,-0.54, -0.07, 9.55, 2.14, 1.62, 7.72, repro,
2008-07-25,-0.03, 0.16, 7.22, 2.11, 1.61, 7.72, repro,
2008-07-26,0.55, 0.79, 7.21, 2.16, 1.66, 7.85, repro,
2008-07-27,0.10, 0.28, 2.61, 2.09, 1.57, 7.50, repro,
2008-07-28,0.09, 1.06, 7.11, 2.23, 1.68, 8.08, repro,
2008-07-29,1.48, 0.52, 10.31, 2.21, 1.64, 8.15, repro,
2008-07-30,0.37, 0.91, 9.17, 2.18, 1.59, 7.83, repro,
2008-07-31,0.02, 0.96, 14.70, 2.11, 1.59, 7.62, repro,
2008-08-01,0.50, 0.08, 3.63, 2.09, 1.56, 7.42, repro,
2008-08-02,-0.23, 0.98, 11.03, 2.10, 1.58, 7.47, repro,
2008-08-03,-0.13, -1.08, 12.04, 2.20, 1.68, 7.91, repro,
2008-08-04,1.18, -0.52, 9.37, 2.14, 1.62, 7.85, repro,
2008-08-05,1.19, 0.19, 3.97, 2.11, 1.59, 7.60, repro,
2008-08-06,-0.84, 0.13, 3.04, 2.14, 1.58, 7.58, repro,
2008-08-07,-0.09, 0.11, 5.41, 2.27, 1.73, 7.92, repro,
2008-08-08,1.52, 0.24, 11.33, 2.22, 1.65, 7.82, repro,
2008-08-09,1.97, 1.64, 0.53, 2.25, 1.66, 8.09, repro,
2008-08-10,0.17, -0.73, 3.47, 2.21, 1.65, 7.92, repro,
2008-08-11,0.03, -0.20, 3.88, 2.18, 1.62, 7.84, repro,
2008-08-12,0.03, 0.96, 7.79, 2.18, 1.61, 7.82, repro,
2008-08-13,0.37, -0.60, 11.66, 2.15, 1.58, 7.64, repro,
2008-08-14,0.92, -0.36, 1.89, 2.19, 1.62, 7.86, repro,
2008-08-15,1.21, 0.51, 4.79, 2.25, 1.69, 8.29, repro,
2008-08-16,0.18, -0.05, 8.84, 2.17, 1.60, 7.72, repro,
2008-08-17,0.83, 0.16, 6.05, 2.18, 1.61, 7.85, repro,
2008-08-18,2.46, 0.57, 3.77, 2.15, 1.58, 7.62, repro,
2008-08-19,0.75, 0.37, 6.85, 2.15, 1.60, 7.68, repro,
2008-08-20,1.72, -0.06, 7.85, 2.25, 1.69, 8.21, repro,
2008-08-21,0.62, -0.09, 15.71, 2.19, 1.64, 7.90, repro,
2008-08-22,1.60, 0.34, -0.49, 2.17, 1.59, 7.70, repro,
2008-08-23,-0.33, -0.19, 4.55, 2.16, 1.59, 7.60, repro,
2008-08-24,0.92, -1.14, 6.34, 2.16, 1.62, 7.73, repro,
2008-08-25,1.59, 0.22, 10.79, 2.19, 1.62, 7.91, repro,
2008-08-26,0.79, -0.44, 10.00, 2.17, 1.61, 7.73, repro,
2008-08-27,1.94, 0.38, 7.33, 2.20, 1.64, 7.86, repro,
2008-08-28,1.54, -0.73, 4.49, 2.33, 1.72, 8.20, repro,
2008-08-29,0.83, 0.40, 10.18, 2.29, 1.74, 8.18, repro,
2008-08-30,1.05, -0.11, 11.16, 2.20, 1.63, 7.81, repro,
2008-08-31,2.65, -0.71, 1.75, 2.27, 1.73, 8.29, repro,
2008-09-01,0.27, -0.93, 0.66, 2.20, 1.63, 7.82, repro,
2008-09-02,0.25, -0.47, 4.42, 2.21, 1.66, 7.99, repro,
2008-09-03,0.71, 0.57, 3.78, 2.22, 1.66, 7.89, repro,
2008-09-04,0.85, 0.26, 3.12, 2.36, 1.81, 8.52, repro,
2008-09-05,0.68, -1.60, 5.79, 2.26, 1.67, 7.99, repro,
2008-09-06,0.32, -0.52, 6.33, 2.22, 1.66, 8.04, repro,
2008-09-07,0.87, 0.40, 2.97, 2.21, 1.66, 8.00, repro,
2008-09-08,-0.15, -1.15, 8.76, 2.20, 1.65, 7.85, repro,
2008-09-09,0.77, 0.76, 5.94, 2.23, 1.61, 7.85, repro,
2008-09-10,1.11, -0.19, 6.69, 2.33, 1.79, 8.52, repro,
2008-09-11,0.03, -1.26, 15.89, 2.24, 1.70, 8.07, repro,
2008-09-12,-0.47, -0.75, 11.61, 2.20, 1.66, 7.96, repro,
2008-09-13,0.34, -0.76, 13.08, 2.20, 1.65, 7.85, repro,
2008-09-14,-0.13, 1.88, 4.04, 2.25, 1.68, 8.02, repro,
2008-09-15,0.38, 0.87, 2.94, 2.23, 1.65, 7.94, repro,
2008-09-16,1.35, -0.08, -0.17, 2.24, 1.71, 8.23, repro,
2008-09-17,-0.06, -1.20, -1.27, 2.30, 1.74, 8.17, repro,
2008-09-18,0.10, -1.18, 7.27, 2.20, 1.65, 7.80, repro,
2008-09-19,0.15, -1.41, 18.12, 2.16, 1.58, 7.62, repro,
2008-09-20,0.74, 0.50, 10.90, 2.16, 1.59, 7.68, repro,
2008-09-21,-0.12, 0.02, 5.27, 2.17, 1.59, 7.68, repro,
2008-09-22,0.06, -1.26, 7.05, 2.18, 1.62, 7.85, repro,
2008-09-23,-0.07, 0.41, 12.15, 2.19, 1.65, 7.79, repro,
2008-09-24,0.07, -0.47, 13.35, 2.25, 1.68, 8.03, repro,
2008-09-25,-0.25, 0.97, 5.85, 2.21, 1.62, 7.85, repro,
2008-09-26,1.50, 0.69, 6.77, 2.17, 1.59, 7.72, repro,
2008-09-27,1.61, -0.20, 5.44, 2.19, 1.62, 7.79, repro,
2008-09-28,0.21, -0.16, 7.51, 2.20, 1.64, 7.83, repro,
2008-09-29,-0.96, -0.11, 8.97, 2.17, 1.60, 7.66, repro,
2008-09-30,-0.07, -0.01, 8.20, 2.17, 1.59, 7.69, repro,
2008-10-01,0.15, -0.47, 3.13, 2.21, 1.62, 7.84, repro,
2008-10-02,0.20, 0.34, 3.14, 2.19, 1.62, 7.80, repro,
2008-10-03,0.58, -0.69, 4.21, 2.24, 1.68, 8.02, repro,
2008-10-04,-0.15, -0.98, 18.89, 2.16, 1.60, 7.66, repro,
2008-10-05,0.18, -2.03, 11.09, 2.26, 1.68, 8.05, repro,
2008-10-06,0.34, -0.33, 10.42, 2.17, 1.59, 7.66, repro,
2008-10-07,1.14, 0.18, 4.86, 2.18, 1.58, 7.70, repro,
2008-10-08,0.02, 0.43, 3.78, 2.16, 1.62, 7.71, repro,
2008-10-09,1.32, -0.70, -1.33, 2.15, 1.63, 7.70, repro,
2008-10-10,0.32, -0.48, 0.71, 2.16, 1.62, 7.65, repro,
2008-10-11,1.71, -1.85, -1.59, 2.11, 1.57, 7.48, repro,
2008-10-12,1.74, -0.66, -1.63, 2.10, 1.57, 7.49, repro,
2008-10-13,2.82, 1.16, -3.61, 2.11, 1.58, 7.56, repro,
2008-10-14,0.48, 0.48, 3.68, 2.13, 1.62, 7.69, repro,
2008-10-15,-1.11, -0.71, 4.25, 2.18, 1.60, 7.75, repro,
2008-10-16,-0.55, 0.39, 1.73, 2.17, 1.60, 7.68, repro,
2008-10-17,0.17, -0.54, -0.02, 2.10, 1.56, 7.46, repro,
2008-10-18,0.92, 0.62, 1.53, 2.12, 1.59, 7.66, repro,
2008-10-19,-0.71, 0.03, 2.70, 2.10, 1.57, 7.52, repro,
2008-10-20,-1.29, -0.58, 6.33, 2.12, 1.59, 7.58, repro,
2008-10-21,-0.95, 0.61, 0.35, 2.15, 1.62, 7.65, repro,
2008-10-22,-0.08, 0.23, 1.57, 2.09, 1.56, 7.44, repro,
2008-10-23,1.02, 0.74, 3.72, 2.10, 1.57, 7.50, repro,
2008-10-24,-0.02, -0.31, 5.86, 2.10, 1.58, 7.52, repro,
2008-10-25,0.94, 0.36, 5.04, 2.11, 1.58, 7.53, repro,
2008-10-26,-0.57, -0.13, -3.38, 2.13, 1.58, 7.58, repro,
2008-10-27,0.46, 0.26, -6.16, 2.09, 1.56, 7.44, repro,
2008-10-28,-0.12, 0.78, -4.83, 2.22, 1.64, 7.82, repro,
2008-10-29,-0.65, 0.79, -0.06, 2.24, 1.65, 7.82, repro,
2008-10-30,0.97, 0.18, 5.16, 2.10, 1.57, 7.51, repro,
2008-10-31,0.10, -0.36, -6.47, 2.20, 1.63, 7.81, repro,
2008-11-01,-1.29, -1.24, 3.22, 2.17, 1.63, 7.76, repro,
2008-11-02,0.37, -0.63, 2.96, 2.12, 1.61, 7.61, repro,
2008-11-03,1.00, -0.72, 1.84, 2.17, 1.61, 7.69, repro,
2008-11-04,0.85, -0.75, 0.89, 2.13, 1.60, 7.65, repro,
2008-11-05,-0.72, -0.13, 1.84, 2.14, 1.62, 7.74, repro,
2008-11-06,0.12, 0.38, -10.55, 2.14, 1.63, 7.74, repro,
2008-11-07,1.11, 0.03, -2.57, 2.15, 1.64, 7.73, repro,
2008-11-08,1.20, 0.14, -5.98, 2.17, 1.71, 7.90, repro,
2008-11-09,-0.91, -2.29, 8.62, 2.15, 1.62, 7.75, repro,
2008-11-10,0.01, -0.21, 1.04, 2.13, 1.65, 7.75, repro,
2008-11-11,0.73, -0.92, -2.52, 2.16, 1.68, 7.98, repro,
2008-11-12,0.81, -1.40, 4.17, 2.13, 1.59, 7.63, repro,
2008-11-13,0.65, -0.53, 1.94, 2.16, 1.63, 7.68, repro,
2008-11-14,2.76, -1.29, -0.64, 2.21, 1.70, 7.98, repro,
2008-11-15,0.38, 1.60, -0.46, 2.15, 1.62, 7.70, repro,
2008-11-16,-0.48, 0.19, -0.98, 2.19, 1.71, 8.00, repro,
2008-11-17,0.37, 0.51, -3.42, 2.20, 1.70, 7.93, repro,
2008-11-18,0.91, 0.31, -7.49, 2.23, 1.75, 8.14, repro,
2008-11-19,1.29, -0.09, -3.65, 2.16, 1.67, 7.88, repro,
2008-11-20,1.56, 0.33, -8.18, 2.21, 1.72, 8.01, repro,
2008-11-21,-0.43, 0.62, -3.68, 2.31, 1.85, 8.59, repro,
2008-11-22,0.38, -0.00, 1.43, 2.23, 1.78, 8.36, repro,
2008-11-23,1.17, -0.24, 0.63, 2.26, 1.74, 8.13, repro,
2008-11-24,0.73, -0.81, -4.18, 2.28, 1.77, 8.33, repro,
2008-11-25,1.94, 0.26, -2.03, 2.18, 1.70, 7.90, repro,
2008-11-26,0.95, 0.12, 2.11, 2.13, 1.62, 7.77, repro,
2008-11-27,-0.53, -0.04, -2.85, 2.16, 1.70, 8.02, repro,
2008-11-28,-0.15, -0.18, 2.97, 2.20, 1.74, 8.06, repro,
2008-11-29,0.16, -1.59, 7.00, 2.17, 1.73, 8.01, repro,
2008-11-30,1.10, 0.22, 5.76, 2.13, 1.61, 7.71, repro,
2008-12-01,1.07, 0.79, 2.93, 2.11, 1.60, 7.62, repro,
2008-12-02,1.31, -0.80, 1.44, 2.14, 1.64, 7.78, repro,
2008-12-03,0.39, -0.32, 3.39, 2.16, 1.63, 7.72, repro,
2008-12-04,-0.11, -0.22, 3.98, 2.19, 1.73, 8.01, repro,
2008-12-05,0.78, 0.39, 0.27, 2.13, 1.63, 7.73, repro,
2008-12-06,1.53, 0.03, -2.86, 2.18, 1.73, 8.01, repro,
2008-12-07,0.81, -0.78, -0.03, 2.19, 1.72, 8.08, repro,
2008-12-08,-0.30, -1.38, 4.76, 2.14, 1.65, 7.77, repro,
2008-12-09,0.84, -2.10, 0.02, 2.16, 1.64, 7.71, repro,
2008-12-10,1.90, -0.19, -7.06, 2.11, 1.59, 7.60, repro,
2008-12-11,1.38, 0.49, -2.92, 2.29, 1.76, 8.32, repro,
2008-12-12,1.35, 0.16, 1.10, 2.23, 1.71, 8.06, repro,
2008-12-13,1.67, -0.87, 4.74, 2.16, 1.68, 7.88, repro,
2008-12-14,0.51, -1.49, 8.90, 2.11, 1.58, 7.52, repro,
2008-12-15,0.67, -0.77, 8.05, 2.15, 1.63, 7.70, repro,
2008-12-16,0.40, -0.36, -1.79, 2.13, 1.59, 7.61, repro,
2008-12-17,0.32, 1.14, -6.12, 2.16, 1.58, 7.61, repro,
2008-12-18,0.76, 1.04, -3.89, 2.14, 1.62, 7.62, repro,
2008-12-19,1.19, -0.65, -2.33, 2.22, 1.61, 7.95, repro,
2008-12-20,0.92, 0.11, -4.22, 2.17, 1.65, 7.85, repro,
2008-12-21,0.64, -0.13, -1.81, 2.20, 1.66, 7.98, repro,